K5KVN-2 Weather Reports


time (UTC)temp
C
wind
direction
speed
KPH
gust
KPH
rain 1hr
cm
rain 24hr
cm
rain mn
cm
humidity
%
barometer
mb
20260905102902 24 151 0.0 1.6 0.00 0.00 0.00 79 1015.5
20260905102341 24 151 0.0 1.6 0.00 0.00 0.00 79 1015.4
20260905100906 24 151 0.0 0.0 0.00 0.00 0.00 79 1015.4
20260905095900 24 151 0.0 1.6 0.00 0.00 0.00 80 1015.4
20260905095332 24 151 0.0 1.6 0.00 0.00 0.00 80 1015.4
20260905093858 24 151 0.0 1.6 0.00 0.00 0.00 79 1015.3
20260905092857 24 151 0.0 0.0 0.00 0.00 0.00 79 1015.4
20260905091856 24 151 0.0 1.6 0.00 0.00 0.00 79 1015.2
20260905090857 24 151 0.0 0.0 0.00 0.00 0.00 78 1015.3
20260905085856 24 151 0.0 0.0 0.00 0.00 0.00 78 1015.3
20260905084857 24 151 0.0 0.0 0.00 0.00 0.00 78 1015.3
20260905083857 24 151 0.0 0.0 0.00 0.00 0.00 77 1015.1
20260905082857 25 151 0.0 0.0 0.00 0.00 0.00 76 1015.1
20260905081858 25 151 0.0 0.0 0.00 0.00 0.00 75 1015.3
20260905080857 25 151 0.0 0.0 0.00 0.00 0.00 75 1015.1
20260905075858 25 151 0.0 0.0 0.00 0.00 0.00 74 1015.2
20260905074856 26 151 0.0 1.6 0.00 0.00 0.00 72 1015.2
20260905073858 26 151 0.0 1.6 0.00 0.00 0.00 68 1015.2
20260905072857 27 151 0.0 0.0 0.00 0.00 0.00 68 1015.2
20260905071859 27 151 0.0 0.0 0.00 0.00 0.00 66 1015.4
20260905070858 27 151 0.0 0.0 0.00 0.00 0.00 65 1015.4
20260905065858 28 151 0.0 1.6 0.00 0.00 0.00 64 1015.5
20260905064855 28 151 1.6 6.4 0.00 0.00 0.00 64 1015.5
20260905063850 28 156 3.2 8.0 0.00 0.00 0.00 64 1015.6
20260905062852 28 158 3.2 4.8 0.00 0.00 0.00 65 1015.5
20260905061852 28 141 3.2 4.8 0.00 0.00 0.00 64 1015.5
20260905060852 28 146 3.2 4.8 0.00 0.00 0.00 64 1015.6
20260905054850 28 136 1.6 3.2 0.00 0.00 0.00 62 1015.5
20260905054331 29 139 4.8 9.7 0.00 0.00 0.00 61 1015.5
20260905052851 29 130 4.8 6.4 0.00 0.00 0.00 61 1015.5
20260905051849 29 128 3.2 6.4 0.00 0.00 0.00 60 1015.5
20260905050846 29 144 3.2 6.4 0.00 0.00 0.00 60 1015.5
20260905050335 30 135 4.8 6.4 0.00 0.00 0.00 59 1015.5
20260905044845 30 128 3.2 9.7 0.00 0.00 0.00 58 1015.4
20260905043844 30 134 3.2 9.7 0.00 0.00 0.00 58 1015.5
20260905043330 30 145 4.8 9.7 0.00 0.00 0.00 57 1015.4
20260905041842 30 134 4.8 9.7 0.00 0.00 0.00 57 1015.4
20260905040840 30 123 4.8 9.7 0.00 0.00 0.00 56 1015.3
20260905035843 30 130 4.8 9.7 0.00 0.00 0.00 56 1015.2
20260905034836 30 126 4.8 9.7 0.00 0.00 0.00 55 1015.4
20260905033836 30 121 6.4 11.3 0.00 0.00 0.00 55 1015.3
20260905032835 31 131 6.4 12.9 0.00 0.00 0.00 54 1015.2
20260905031836 31 163 6.4 11.3 0.00 0.00 0.00 53 1015.2
20260905031310 31 139 6.4 11.3 0.00 0.00 0.00 53 1015.2
20260905025836 31 146 4.8 9.7 0.00 0.00 0.00 53 1015.1
20260905024836 31 132 4.8 9.7 0.00 0.00 0.00 52 1015.1
20260905023836 31 138 4.8 6.4 0.00 0.00 0.00 52 1014.8
20260905022835 31 121 4.8 9.7 0.00 0.00 0.00 51 1014.7
20260905021832 31 123 4.8 9.7 0.00 0.00 0.00 51 1014.6
20260905021317 31 138 4.8 9.7 0.00 0.00 0.00 50 1014.3
20260905015830 31 139 4.8 8.0 0.00 0.00 0.00 50 1014.3
20260905015306 32 148 4.8 14.5 0.00 0.00 0.00 49 1014.1
20260905013830 32 144 3.2 4.8 0.00 0.00 0.00 48 1014.0
20260905013310 32 140 3.2 4.8 0.00 0.00 0.00 47 1013.9
20260905012313 32 132 3.2 4.8 0.00 0.00 0.00 47 1013.7
20260905010829 33 150 3.2 8.0 0.00 0.00 0.00 46 1013.6
20260905005830 33 140 4.8 8.0 0.00 0.00 0.00 45 1013.6
20260905004832 33 154 4.8 8.0 0.00 0.00 0.00 45 1013.6
20260905003829 33 140 4.8 8.0 0.00 0.00 0.00 44 1013.5
20260905003314 34 140 4.8 6.4 0.00 0.00 0.00 42 1013.5
20260905001831 34 138 6.4 9.7 0.00 0.00 0.00 41 1013.4
20260905000830 35 141 6.4 12.9 0.00 0.00 0.00 41 1013.4
20260904235829 35 123 6.4 12.9 0.00 0.00 0.00 41 1013.4
20260904234829 35 125 6.4 12.9 0.00 0.00 0.00 38 1013.5
20260904233830 35 136 6.4 11.3 0.00 0.00 0.00 38 1013.5
20260904232829 35 178 6.4 14.5 0.00 0.00 0.00 39 1013.4
20260904232307 35 95 6.4 12.9 0.00 0.00 0.00 39 1013.4
20260904230834 36 132 6.4 14.5 0.00 0.00 0.00 38 1013.5
20260904225831 36 83 4.8 11.3 0.00 0.00 0.00 37 1013.4
20260904224830 36 150 6.4 11.3 0.00 0.00 0.00 39 1013.5
20260904223828 36 99 9.7 19.3 0.00 0.00 0.00 39 1013.5
20260904222828 36 131 6.4 16.1 0.00 0.00 0.00 38 1013.6
20260904221828 36 128 4.8 14.5 0.00 0.00 0.00 39 1013.6
20260904221302 36 94 9.7 17.7 0.00 0.00 0.00 38 1013.8
20260904215829 37 107 8.0 17.7 0.00 0.00 0.00 37 1013.8
20260904214828 36 90 6.4 12.9 0.00 0.00 0.00 38 1013.9
20260904213829 36 164 6.4 17.7 0.00 0.00 0.00 36 1014.0
20260904212827 37 110 9.7 16.1 0.00 0.00 0.00 36 1014.1
20260904211827 37 190 4.8 12.9 0.00 0.00 0.00 35 1014.1
20260904210828 37 183 9.7 22.5 0.00 0.00 0.00 35 1014.2
20260904205822 37 172 8.0 19.3 0.00 0.00 0.00 35 1014.3
20260904204821 37 152 14.5 29.0 0.00 0.00 0.00 35 1014.4
20260904203823 37 261 9.7 24.1 0.00 0.00 0.00 34 1014.4
20260904201821 36 262 11.3 22.5 0.00 0.00 0.00 34 1014.7
20260904200824 36 155 4.8 12.9 0.00 0.00 0.00 37 1014.7
20260904195822 36 213 11.3 20.9 0.00 0.00 0.00 37 1014.9
20260904194823 37 173 9.7 22.5 0.00 0.00 0.00 36 1014.9
20260904193824 36 85 6.4 17.7 0.00 0.00 0.00 37 1014.8
20260904192823 36 180 6.4 16.1 0.00 0.00 0.00 37 1014.9
20260904191822 36 182 9.7 24.1 0.00 0.00 0.00 37 1015.2
20260904190823 36 117 9.7 24.1 0.00 0.00 0.00 37 1015.1
20260904185822 36 140 8.0 24.1 0.00 0.00 0.00 38 1015.3
20260904184822 36 237 9.7 19.3 0.00 0.00 0.00 38 1015.5
20260904183822 36 233 8.0 19.3 0.00 0.00 0.00 40 1015.5
20260904182823 35 169 8.0 25.7 0.00 0.00 0.00 40 1015.6
20260904181823 36 159 9.7 27.4 0.00 0.00 0.00 39 1015.9
20260904180820 35 232 12.9 24.1 0.00 0.00 0.00 41 1016.1
20260904175820 35 161 9.7 22.5 0.00 0.00 0.00 43 1016.2
20260904174820 35 187 11.3 22.5 0.00 0.00 0.00 43 1016.4
20260904172820 34 180 8.0 16.1 0.00 0.00 0.00 45 1016.6
20260904171818 34 165 9.7 22.5 0.00 0.00 0.00 44 1016.9
20260904171301 34 166 9.7 20.9 0.00 0.00 0.00 46 1016.8
20260904165817 33 209 8.0 19.3 0.00 0.00 0.00 48 1016.8
20260904164817 33 161 12.9 20.9 0.00 0.00 0.00 46 1016.9
20260904163816 33 174 11.3 27.4 0.00 0.00 0.00 47 1016.9
20260904162815 33 130 9.7 20.9 0.00 0.00 0.00 49 1016.9
20260904161816 33 220 11.3 19.3 0.00 0.00 0.00 52 1017.1
20260904160811 32 188 12.9 25.7 0.00 0.00 0.00 54 1017.0
20260904155812 32 163 11.3 19.3 0.00 0.00 0.00 54 1017.1
20260904154809 32 180 11.3 22.5 0.00 0.00 0.00 55 1017.1
20260904152809 31 203 11.3 22.5 0.00 0.00 0.00 58 1017.1
20260904151809 30 193 9.7 19.3 0.00 0.00 0.00 59 1017.1
20260904150809 30 168 4.8 14.5 0.00 0.00 0.00 61 1017.0
20260904145811 30 178 4.8 11.3 0.00 0.00 0.00 64 1017.2
20260904145306 29 150 4.8 12.9 0.00 0.00 0.00 66 1017.0
20260904143809 28 190 3.2 9.7 0.00 0.00 0.00 68 1017.1
20260904142807 28 55 1.6 8.0 0.00 0.00 0.00 69 1017.1
20260904141808 27 146 1.6 4.8 0.00 0.00 0.00 70 1017.1
20260904140805 27 196 3.2 8.0 0.00 0.00 0.00 71 1017.1
20260904135802 27 128 1.6 6.4 0.00 0.00 0.00 71 1017.2
20260904134803 26 109 1.6 3.2 0.00 0.00 0.00 73 1017.1
20260904133805 26 132 0.0 0.0 0.00 0.00 0.00 74 1017.1
20260904132802 25 67 0.0 0.0 0.00 0.00 0.00 77 1017.0
20260904131803 25 84 0.0 0.0 0.00 0.00 0.00 80 1017.0
20260904131250 24 142 0.0 0.0 0.00 0.00 0.00 81 1016.9
20260904130243 24 142 0.0 1.6 0.00 0.00 0.00 81 1016.8
20260904125247 23 47 0.0 3.2 0.00 0.00 0.00 82 1016.7
20260904123802 23 57 0.0 1.6 0.00 0.00 0.00 83 1016.7
20260904123240 22 36 0.0 0.0 0.00 0.00 0.00 84 1016.6
20260904121803 22 36 0.0 1.6 0.00 0.00 0.00 85 1016.5
20260904120802 22 0 0.0 0.0 0.00 0.00 0.00 86 1016.4
20260904115759 22 0 0.0 0.0 0.00 0.00 0.00 85 1016.4
20260904114800 22 0 0.0 0.0 0.00 0.00 0.00 85 1016.4
20260904113758 22 0 0.0 0.0 0.00 0.00 0.00 84 1016.3
20260904113233 22 0 0.0 0.0 0.00 0.00 0.00 84 1016.3
20260904111759 22 0 1.6 4.8 0.00 0.00 0.00 82 1016.3
20260904110759 23 340 1.6 6.4 0.00 0.00 0.00 80 1016.3
20260904105759 23 133 0.0 0.0 0.00 0.00 0.00 78 1016.2
20260904104800 24 133 0.0 0.0 0.00 0.00 0.00 76 1016.1